Wind_Speed
33 37 41 45 45 44 44 46 46 44 43 43 45 45 46 45 43 40 41 39 39 39 41 41 41 37 39 39 39 39 38 39
37 40 44 47 49 46 44 46 46 48 46 45 47 48 49 49 46 45 43 43 41 41 42 43 42 41 42 40 39 40 40 39
32 33 34 40 46 53 55 48 47 47 48 45 50 52 52 51 52 49 45 44 43 43 44 47 46 43 49 46 41 39 37 39
31 34 37 40 45 49 56 56 54 46 50 52 55 56 54 54 55 51 47 42 41 43 45 48 46 52 41 49 44 40 39 41
42 39 40 43 43 55 57 68 58 54 52 55 56 56 55 55 56 55 50 46 45 44 46 48 45 45 50 50 42 47 40 42
57 55 49 50 53 56 55 62 64 58 57 57 57 57 57 55 55 55 52 46 44 44 46 49 49 44 54 45 44 47 48 43
66 67 68 56 61 61 63 65 67 59 56 58 58 55 55 54 52 54 52 44 45 42 47 51 51 46 51 50 47 48 43 42
75 81 77 73 65 70 72 71 70 63 58 59 59 55 54 53 52 54 50 45 48 47 54 57 54 48 46 45 42 42 46 51
81 84 83 82 78 80 79 76 65 67 60 58 59 59 57 57 56 59 50 48 53 55 55 55 55 47 46 42 37 48 50 46
72 75 81 82 85 84 84 60 61 64 65 58 57 55 58 57 62 59 55 53 56 61 57 63 57 50 45 37 42 46 39 34
62 68 69 76 82 85 80 63 57 55 61 63 60 56 54 55 58 55 54 53 58 57 65 57 57 46 45 39 38 51 43 40
63 61 68 76 81 77 71 64 51 43 50 59 60 56 50 51 54 58 51 54 61 64 48 57 64 61 48 36 30 35 40 35
56 67 65 66 67 62 63 59 53 46 50 55 57 57 57 56 58 54 52 56 62 59 59 57 47 45 38 34 28 30 28 31
16 28 46 46 52 40 32 32 41 41 46 49 46 47 49 53 55 52 51 55 54 55 51 40 32 28 25 26 26 29 33 35
24 20 19 33 25 21 39 36 33 40 43 43 43 45 49 48 46 47 50 55 54 38 38 38 25 23 25 24 28 31 33 34
29 32 24 15 21 13 11 27 41 47 49 50 50 49 49 50 49 49 56 53 53 34 26 28 24 24 27 29 31 35 35 32
28 32 29 36 30 22 13 5 20 37 49 48 45 48 46 44 45 50 56 37 46 30 29 31 24 29 31 32 33 38 35 33
35 32 29 29 36 34 37 30 11 12 14 34 42 41 38 32 45 51 37 32 28 29 31 25 32 34 32 33 33 32 29 28
33 32 28 35 26 22 27 23 21 23 16 19 21 29 32 36 34 25 24 19 23 28 25 27 27 30 34 33 35 31 23 24
Wind_Direction
303 306 305 301 300 299 295 290 286 281 278 277 274 268 267 266 265 264 262 261 260 255 256 260 261 269 266 269 276 280 281 284
299 295 296 302 302 297 295 290 287 284 278 275 272 267 264 264 266 264 264 263 260 255 255 258 258 264 267 271 274 278 280 280
285 289 296 302 300 297 293 288 283 278 272 268 268 266 265 268 269 266 263 264 264 262 258 257 259 258 261 266 269 276 277 280
272 279 283 293 293 290 289 290 280 270 266 263 264 266 268 268 267 267 264 263 262 261 260 262 266 258 256 266 270 269 277 276
265 265 271 279 283 289 296 284 280 271 259 259 259 260 262 262 262 263 264 260 260 259 259 262 265 256 257 261 269 266 274 279
264 265 273 266 270 283 282 280 274 269 260 253 251 253 256 257 259 262 264 261 262 266 266 265 264 258 258 256 271 268 277 274
263 268 274 271 269 274 272 279 266 261 257 253 248 247 250 253 257 260 259 264 269 271 269 263 261 254 256 262 267 265 272 279
268 272 273 274 275 274 266 266 266 256 254 251 246 244 245 248 251 251 254 263 266 268 278 264 253 256 258 261 267 266 265 278
273 274 274 276 276 275 263 264 261 258 255 253 248 243 242 242 251 254 260 255 262 268 268 269 249 250 250 261 267 265 269 269
275 273 273 271 270 263 258 259 255 258 259 255 247 245 243 245 249 253 261 263 264 268 268 257 253 244 251 257 261 253 268 279
259 266 267 265 265 257 260 273 274 260 258 257 251 251 246 243 251 255 259 263 261 263 259 253 249 238 247 252 261 257 271 277
263 263 266 261 262 263 269 270 272 267 257 256 255 251 243 241 245 248 256 258 259 254 266 267 255 249 251 259 260 274 278 262
268 266 273 273 269 271 271 274 265 259 250 248 250 248 244 247 249 246 253 254 256 255 268 263 240 244 246 244 244 253 257 247
277 268 268 266 276 269 256 261 253 242 243 241 240 241 243 244 246 249 248 256 263 263 251 249 237 231 232 231 236 243 250 255
268 294 256 262 249 216 243 261 233 231 238 236 235 238 242 243 246 250 252 254 263 249 231 236 231 242 248 245 239 244 249 253
299 294 301 281 261 227 184 218 230 227 228 232 237 240 245 248 250 255 258 252 250 241 229 254 239 252 247 247 247 252 250 253
295 295 302 289 282 248 320 225 172 226 230 231 235 240 245 250 254 249 247 243 247 218 237 250 264 249 248 250 247 249 250 255
281 287 294 297 288 299 289 318 311 214 181 232 237 236 235 234 239 242 243 231 225 242 241 249 259 257 251 251 250 251 253 251
267 272 282 285 289 298 301 305 306 298 270 204 206 204 214 216 231 235 238 245 243 246 250 254 268 260 266 257 264 267 253 247
Height
5764 5762 5761 5759 5759 5761 5760 5760 5759 5758 5757 5756 5754 5753 5752 5751 5751 5753 5753 5754 5755 5755 5755 5755 5757 5758 5759 5759 5759 5758 5759 5759
5755 5753 5751 5750 5749 5749 5749 5748 5749 5747 5748 5746 5745 5744 5743 5741 5743 5743 5744 5745 5745 5746 5746 5745 5746 5748 5749 5749 5750 5749 5749 5750
5745 5743 5741 5741 5741 5739 5738 5738 5736 5736 5735 5735 5733 5733 5732 5732 5732 5732 5734 5734 5736 5736 5736 5735 5736 5738 5738 5739 5740 5739 5740 5741
5733 5732 5732 5731 5730 5730 5728 5727 5724 5723 5722 5722 5721 5720 5722 5721 5721 5721 5723 5723 5724 5724 5725 5725 5725 5724 5727 5729 5730 5730 5730 5730
5720 5718 5717 5717 5717 5714 5715 5715 5712 5711 5707 5708 5709 5709 5710 5710 5708 5708 5709 5711 5713 5713 5714 5715 5715 5717 5718 5719 5720 5721 5721 5721
5708 5703 5699 5699 5698 5698 5697 5695 5694 5695 5694 5694 5696 5696 5696 5697 5697 5697 5699 5701 5702 5703 5704 5704 5704 5705 5703 5707 5709 5710 5711 5711
5690 5686 5684 5683 5683 5682 5680 5677 5675 5675 5677 5680 5683 5683 5685 5685 5686 5685 5686 5690 5690 5692 5691 5690 5691 5696 5697 5698 5697 5698 5699 5700
5668 5666 5664 5664 5662 5662 5658 5657 5657 5656 5659 5663 5667 5670 5672 5673 5673 5674 5673 5677 5678 5679 5679 5676 5676 5681 5684 5686 5686 5686 5687 5689
5647 5643 5642 5641 5638 5638 5636 5635 5636 5639 5641 5647 5653 5654 5658 5660 5659 5661 5661 5663 5666 5666 5667 5664 5665 5666 5670 5673 5674 5676 5678 5677
5623 5622 5618 5615 5614 5612 5609 5614 5618 5622 5626 5631 5636 5640 5643 5646 5646 5648 5647 5654 5654 5653 5652 5650 5650 5649 5656 5660 5662 5663 5666 5666
5597 5595 5594 5588 5586 5587 5589 5594 5599 5606 5609 5614 5620 5625 5629 5631 5632 5634 5638 5642 5640 5638 5636 5634 5635 5636 5642 5646 5649 5653 5654 5656
5572 5572 5567 5564 5562 5566 5571 5577 5584 5588 5593 5598 5603 5609 5614 5617 5620 5623 5627 5628 5625 5622 5624 5626 5624 5629 5632 5636 5637 5640 5642 5645
5556 5549 5547 5546 5550 5551 5554 5559 5567 5572 5577 5582 5587 5593 5599 5604 5607 5612 5615 5614 5605 5608 5613 5613 5614 5618 5621 5624 5626 5629 5631 5632
5542 5537 5535 5537 5539 5538 5541 5541 5549 5557 5561 5567 5573 5579 5584 5590 5594 5599 5602 5598 5592 5598 5601 5605 5604 5607 5611 5612 5615 5618 5621 5622
5533 5530 5526 5529 5530 5524 5525 5531 5536 5543 5549 5555 5560 5565 5571 5577 5582 5586 5590 5593 5594 5584 5585 5594 5596 5598 5603 5603 5605 5608 5611 5612
5524 5522 5520 5522 5524 5522 5517 5519 5524 5532 5538 5543 5548 5553 5559 5565 5570 5574 5577 5580 5582 5579 5582 5587 5587 5591 5592 5594 5595 5598 5600 5600
5517 5517 5515 5515 5518 5517 5515 5513 5516 5520 5526 5533 5538 5543 5548 5554 5559 5560 5563 5565 5570 5565 5570 5579 5578 5579 5582 5584 5585 5588 5589 5590
5505 5509 5510 5510 5512 5510 5509 5512 5513 5514 5512 5523 5529 5533 5538 5544 5547 5549 5548 5554 5557 5561 5562 5567 5571 5573 5572 5575 5577 5578 5578 5579
5494 5497 5502 5502 5504 5506 5506 5509 5511 5512 5511 5514 5519 5522 5526 5530 5535 5536 5540 5544 5548 5551 5554 5561 5562 5564 5567 5568 5569 5568 5569 5571